Location: Unspecified
(0.0000°N, 0.0000°E)
Time: 13:28:07
(UTC+01:00)

Amateur Radio Satellites - All Passes

Search period start: 01 March 2015 12:58
Search period end: 02 March 2015 12:58
Location: Unspecified, 0.0000°N, 0.0000°E

Satellite Date Start Highest point End Downlink Frequencies (MHz)
Time Altitude Azimuth
SRMSAT 01 Mar 13:04:19 13:10:17 85° 203° (SSW) 13:16:15 437.500
JUGNU 01 Mar 13:07:33 13:12:56 34° 199° (SSW) 13:18:15 437.505
SPROUT 01 Mar 13:11:55 13:16:03 50° 281° (WNW) 13:20:12 437.525
SO-50 01 Mar 13:14:20 13:19:07 58° 68° (ENE) 13:23:49 436.795
Oscar 19 01 Mar 13:17:55 13:21:21 19° 79° (E) 13:25:01 437.125/150
TISAT 1 01 Mar 13:22:31 13:26:26 39° 281° (W) 13:30:19 437.305
SWISSCUBE 01 Mar 13:46:27 13:50:52 38° 102° (ESE) 13:55:20 437.505
BEESAT 01 Mar 13:55:16 13:59:50 45° 102° (ESE) 14:04:26 436.000
Gurwin Techsat 1B 01 Mar 14:14:13 14:17:02 15° 79° (E) 14:20:11 435.225
ITUPSAT 1 01 Mar 14:21:16 14:26:04 83° 282° (WNW) 14:30:54 437.325
KKS-1 01 Mar 14:36:12 14:39:06 18° 101° (E) 14:42:12 437.445
VERMONT LUNAR 01 Mar 14:44:06 14:47:01 25° 138° (SE) 14:49:58 437.305
STARS 01 Mar 14:47:17 14:49:26 14° 100° (E) 14:51:53 437.465
ITAMSAT 1 01 Mar 14:49:53 14:55:02 64° 78° (ENE) 15:00:12 435.822/435.867
SRMSAT 01 Mar 14:54:22 14:59:36 31° 199° (SSW) 15:04:47 437.500
Oscar 19 01 Mar 14:56:16 15:00:36 26° 259° (WSW) 15:04:48 437.125/150
JUGNU 01 Mar 14:59:01 15:02:28 15° 192° (SSW) 15:05:50 437.505
HORYU 2 01 Mar 15:16:00 15:18:16 14° 80° (E) 15:20:49 437.375
SWISSCUBE 01 Mar 15:27:28 15:28:40 11° 280° (W) 15:29:27 437.505
Gurwin Techsat 1B 01 Mar 15:52:08 15:56:56 34° 258° (WSW) 16:01:38 435.225
YUBILEINY 01 Mar 15:54:14 16:01:02 27° 95° (E) 16:08:12 435.215
BEESAT 2 01 Mar 16:10:48 16:11:50 11° 114° (ESE) 16:13:10 435.950
KKS-1 01 Mar 16:12:23 16:15:39 20° 281° (W) 16:18:45 437.445
PHONESAT 2.4 01 Mar 16:13:11 16:16:47 76° 317° (NW) 16:20:24 2401.200-2431.200
STARS 01 Mar 16:22:14 16:25:48 24° 281° (W) 16:29:17 437.465
VERMONT LUNAR 01 Mar 16:22:26 16:24:52 17° 319° (NW) 16:27:14 437.305
AO-7 01 Mar 16:28:25 16:36:37 60° 75° (ENE) 16:44:48 29.400- 29.500
SRMSAT 01 Mar 16:46:08 16:49:21 15° 191° (SSW) 16:52:29 437.500
HORYU 2 01 Mar 16:51:09 16:54:50 25° 259° (WSW) 16:58:25 437.375
MOZHAYETS 4 01 Mar 17:10:47 17:15:17 51° 101° (ESE) 17:19:49
BEESAT 3 01 Mar 17:22:19 17:26:10 45° 292° (WNW) 17:30:02 437.485
M-CUBED/EXP-1 PRIME 01 Mar 17:24:17 17:28:44 45° 284° (WNW) 17:33:21 437.505
AUBIESAT-1 01 Mar 17:27:38 17:32:06 47° 285° (WNW) 17:36:44 437.475
AIST 2 01 Mar 17:34:24 17:38:25 51° 112° (ESE) 17:42:30 435.215
JAS-2 01 Mar 17:34:53 17:39:55 51° 258° (WSW) 17:45:01 435.910
BEESAT 2 01 Mar 17:46:30 17:49:55 25° 293° (WNW) 17:53:16 435.950
YUBILEINY 01 Mar 17:49:49 17:57:44 37° 275° (W) 18:05:27 435.215
Cubesat XI-IV 01 Mar 18:05:48 18:09:26 19° 79° (E) 18:13:19 437.490
CUTE-I 01 Mar 18:14:42 18:18:55 25° 79° (ENE) 18:23:17 437.470
AO-7 01 Mar 18:23:57 18:29:19 17° 256° (WSW) 18:34:02 29.400- 29.500
STRAND 1 01 Mar 18:36:02 18:38:33 14° 101° (E) 18:41:26 437.568
JUGNU 01 Mar 18:40:51 18:42:38 11° 172° (S) 18:44:30 437.505
PRISM 01 Mar 18:52:23 18:56:26 46° 102° (ESE) 19:00:29 437.425
ISS 01 Mar 18:56:16 18:58:20 16° 53° (NE) 19:00:31 145.825
CUBESAT XI-V 01 Mar 19:05:17 19:09:55 66° 101° (E) 19:14:33 437.345
Cubesat XI-IV 01 Mar 19:44:54 19:49:26 27° 258° (WSW) 19:53:50 437.490
CUTE-I 01 Mar 19:54:47 19:58:53 22° 259° (WSW) 20:02:47 437.470
AIST 1 01 Mar 20:10:58 20:15:09 45° 266° (W) 20:19:17
STRAND 1 01 Mar 20:13:04 20:17:40 33° 282° (WNW) 20:22:12 437.568
PCSat 01 Mar 20:27:05 20:32:28 76° 110° (ESE) 20:37:52 145.827
SRMSAT 01 Mar 20:27:35 20:29:53 12° 171° (S) 20:32:17 437.500
JUGNU 01 Mar 20:28:02 20:32:26 22° 164° (SSE) 20:36:56 437.505
ISS 01 Mar 20:32:41 20:34:40 15° 233° (SW) 20:36:33 145.825
CUTE 1.7 + AOD 2 01 Mar 20:35:20 20:36:53 12° 81° (E) 20:38:44 437.475
BRITE-PL 01 Mar 20:53:37 20:59:06 55° 79° (E) 21:04:41 437.365/2234.400
GOMX 1 01 Mar 21:06:04 21:11:21 48° 79° (E) 21:16:37 467.674
HO-68 01 Mar 21:13:10 21:20:10 61° 76° (ENE) 21:27:11 435.675
AAUSAT CUBESAT 2 01 Mar 21:22:29 21:26:10 32° 80° (E) 21:29:54 437.432
COMPASS 1 01 Mar 21:23:44 21:27:39 40° 79° (E) 21:31:34 437.405
O/OREOS (USA 219) 01 Mar 21:37:27 21:41:58 68° 255° (WSW) 21:46:27 437.305
RS-15 01 Mar 21:40:46 21:48:55 25° 116° (ESE) 21:57:31 29.354- 29.394
DOVE 4 01 Mar 21:47:35 21:52:57 82° 258° (WSW) 21:58:13 437.250
FUNcube-1 01 Mar 21:48:14 21:49:44 12° 81° (E) 21:51:33 145.935
ZACube-1 01 Mar 21:48:44 21:50:28 12° 81° (E) 21:52:31 437.345
SEEDS 01 Mar 21:48:45 21:52:55 62° 259° (W) 21:57:03 437.485
CANX-2 01 Mar 21:49:53 21:53:55 41° 259° (W) 21:57:53 2200.000
UKube-1 01 Mar 21:58:50 22:01:10 15° 80° (E) 22:03:45 .
GONETS M04 01 Mar 22:01:35 22:09:42 45° 94° (E) 22:17:53
UWE-3 01 Mar 22:02:44 22:06:35 27° 80° (E) 22:10:28 435.000/436.395/437.385
CINEMA 3 01 Mar 22:06:18 22:11:21 83° 79° (E) 22:16:16 145.822/145.860
CUTE 1.7 + AOD 2 01 Mar 22:09:11 22:12:45 25° 260° (W) 22:16:10 437.475
SRMSAT 01 Mar 22:15:05 22:19:49 24° 163° (SSE) 22:24:38 437.500
JUGNU 01 Mar 22:15:59 22:21:44 56° 159° (SSE) 22:27:30 437.505
UNISAT 6 01 Mar 22:20:34 22:22:14 12° 101° (E) 22:24:14 437.425
BRITE-PL 01 Mar 22:36:09 22:37:34 11° 261° (W) 22:38:26 437.365/2234.400
CUBEBUG 2 01 Mar 22:36:27 22:41:12 80° 257° (WSW) 22:45:49 437.445
DELFI C3 01 Mar 22:38:05 22:42:06 64° 259° (W) 22:46:04 145.870
Oscar 11 01 Mar 22:39:56 22:44:06 46° 259° (W) 22:48:12 145.826/435.025
TIGRISAT 01 Mar 22:44:24 22:48:02 27° 101° (E) 22:51:50 435.000
GOMX 1 01 Mar 22:47:18 22:49:22 12° 260° (W) 22:50:56 467.674
QB50P1 01 Mar 22:55:45 22:58:28 17° 101° (E) 23:01:22 145.935-145.965
ANTELSAT 01 Mar 22:56:45 23:00:52 42° 101° (ESE) 23:05:09 437.575/2403.000
QB50P2 01 Mar 22:58:48 23:01:50 20° 101° (E) 23:05:00 145.880/145.840
AISAT 01 Mar 22:58:55 23:03:02 36° 78° (ENE) 23:07:11 437.250
DX 1 01 Mar 23:01:35 23:05:55 60° 258° (WSW) 23:10:14 434.975-435.025
HO-68 01 Mar 23:04:16 23:07:50 14° 257° (WSW) 23:10:46 435.675
CUBEBUG 1 01 Mar 23:08:36 23:11:08 16° 80° (E) 23:13:54 437.445
VELOX 1 01 Mar 23:08:54 23:13:13 49° 78° (ENE) 23:17:33 145.980
DANDE 01 Mar 23:10:25 23:12:30 12° 102° (ESE) 23:15:24 436.750
BUGSAT 1 01 Mar 23:12:59 23:15:55 20° 100° (E) 23:19:00 437.445
DUCHIFAT 1 01 Mar 23:14:26 23:18:09 32° 101° (E) 23:21:56 145.980
ESTCUBE 1 01 Mar 23:20:01 23:23:44 26° 79° (E) 23:27:32 437.505/2401.250
FUNcube-1 01 Mar 23:21:59 23:26:01 30° 259° (W) 23:29:53 145.935
ZACube-1 01 Mar 23:22:47 23:26:46 29° 259° (W) 23:30:36 437.345
POLYITAN 1 01 Mar 23:32:38 23:36:47 65° 101° (ESE) 23:40:59 437.675
UKube-1 01 Mar 23:33:45 23:37:13 23° 259° (W) 23:40:34 .
POPSAT HIP 1 01 Mar 23:33:50 23:38:00 66° 101° (ESE) 23:42:11 437.405
HUMSAT D 01 Mar 23:36:18 23:40:22 39° 259° (W) 23:44:20 437.325/437.525
UWE-3 01 Mar 23:40:23 23:42:59 14° 259° (W) 23:45:17 435.000/436.395/437.385
CUSAT 1 01 Mar 23:43:56 23:50:59 34° 99° (E) 23:57:14 437.405
50 SAT 01 Mar 23:47:08 23:50:58 40° 259° (WSW) 23:54:45 437.505
RS-15 01 Mar 23:50:32 00:01:21 55° 292° (WNW) 00:11:47 29.354- 29.394
UNISAT 6 01 Mar 23:55:08 23:58:55 28° 280° (W) 00:02:42 437.425
NANOSAT C BR1 01 Mar 23:57:36 00:01:42 52° 281° (W) 00:05:47 145.865
GONETS M04 01 Mar 23:59:52 00:06:27 22° 275° (W) 00:12:29
SRMSAT 02 Mar 00:03:21 00:09:15 62° 159° (SSE) 00:15:12 437.500
JUGNU 02 Mar 00:05:04 00:10:47 53° 339° (NNW) 00:16:32 437.505
TIGRISAT 02 Mar 00:22:39 00:24:44 13° 279° (W) 00:26:31 435.000
QB50P1 02 Mar 00:31:19 00:34:15 18° 280° (W) 00:36:59 145.935-145.965
QB50P2 02 Mar 00:35:01 00:37:38 15° 280° (W) 00:40:02 145.880/145.840
CUBEBUG 1 02 Mar 00:43:54 00:47:24 22° 259° (W) 00:50:46 437.445
DANDE 02 Mar 00:47:54 00:56:31 81° 275° (W) 01:03:48 436.750
BUGSAT 1 02 Mar 00:49:05 00:51:19 14° 280° (W) 00:53:18 437.445
ESTCUBE 1 02 Mar 00:58:07 01:00:31 14° 260° (W) 01:02:38 437.505/2401.250
SPROUT 02 Mar 01:20:25 01:24:28 38° 259° (W) 01:28:29 437.525
CUSAT 1 02 Mar 01:26:51 01:33:44 29° 273° (W) 01:39:27 437.405
SO-50 02 Mar 01:27:28 01:31:51 75° 292° (WNW) 01:36:20 436.795
TISAT 1 02 Mar 01:28:55 01:32:47 32° 259° (W) 01:36:35 437.305
Oscar 19 02 Mar 01:50:09 01:55:04 48° 102° (ESE) 02:00:03 437.125/150
SRMSAT 02 Mar 01:52:45 01:58:30 48° 340° (NNW) 02:04:16 437.500
JUGNU 02 Mar 01:55:40 02:00:07 21° 344° (NNW) 02:04:32 437.505
SWISSCUBE 02 Mar 02:08:28 02:13:14 77° 77° (ENE) 02:17:59 437.505
BEESAT 02 Mar 02:17:19 02:22:05 90° 331° (NNW) 02:26:51 436.000
VERMONT LUNAR 02 Mar 02:21:50 02:24:23 20° 41° (NE) 02:27:00 437.305
ITUPSAT 1 02 Mar 02:44:12 02:48:42 40° 259° (WSW) 02:53:08 437.325
KKS-1 02 Mar 02:48:19 02:52:05 27° 79° (E) 02:55:54 437.445
Gurwin Techsat 1B 02 Mar 02:50:38 02:55:38 44° 102° (ESE) 03:00:41 435.225
STARS 02 Mar 02:57:50 03:01:06 21° 79° (E) 03:04:29 437.465
ITAMSAT 1 02 Mar 03:25:07 03:30:06 47° 282° (WNW) 03:35:04 435.822/435.867
HORYU 2 02 Mar 03:27:55 03:31:16 22° 101° (E) 03:34:46 437.375
SRMSAT 02 Mar 03:43:44 03:48:04 20° 345° (NNW) 03:52:20 437.500
JUGNU 02 Mar 03:48:04 03:49:59 11° 353° (N) 03:51:49 437.505
PHONESAT 2.4 02 Mar 03:54:28 03:58:02 88° 233° (SW) 04:01:36 2401.200-2431.200
VERMONT LUNAR 02 Mar 03:59:31 04:02:13 21° 222° (SW) 04:04:53 437.305
BEESAT 2 02 Mar 04:06:10 04:07:55 13° 66° (ENE) 04:09:53 435.950
YUBILEINY 02 Mar 04:26:13 04:34:43 55° 86° (E) 04:43:16 435.215
KKS-1 02 Mar 04:26:19 04:28:37 13° 260° (W) 04:30:37 437.445
Gurwin Techsat 1B 02 Mar 04:33:40 04:35:33 11° 280° (W) 04:36:59 435.225
STARS 02 Mar 04:34:26 04:37:27 17° 259° (W) 04:40:15 437.465
AO-7 02 Mar 04:54:38 05:02:55 87° 285° (WNW) 05:11:15 29.400- 29.500
HORYU 2 02 Mar 05:04:53 05:07:49 17° 280° (W) 05:10:33 437.375
JAS-2 02 Mar 05:04:58 05:12:50 81° 102° (ESE) 05:20:32 435.910
BEESAT 3 02 Mar 05:17:49 05:21:36 39° 248° (WSW) 05:25:20 437.485
MOZHAYETS 4 02 Mar 05:27:47 05:32:22 88° 79° (E) 05:36:55
M-CUBED/EXP-1 PRIME 02 Mar 05:28:53 05:32:00 31° 255° (WSW) 05:34:58 437.505
AUBIESAT-1 02 Mar 05:31:42 05:34:51 33° 255° (WSW) 05:37:51 437.475
AIST 2 02 Mar 05:33:33 05:37:39 67° 68° (ENE) 05:41:42 435.215
SRMSAT 02 Mar 05:36:29 05:38:09 11° 354° (N) 05:39:45 437.500
JUGNU 02 Mar 05:39:44 05:40:09 10° 3° (N) 05:40:37 437.505
BEESAT 2 02 Mar 05:42:47 05:45:59 22° 247° (WSW) 05:49:04 435.950
YUBILEINY 02 Mar 06:25:40 06:31:31 18° 264° (W) 06:36:40 435.215
Cubesat XI-IV 02 Mar 06:43:57 06:49:09 57° 102° (ESE) 06:54:25 437.490
CUTE-I 02 Mar 06:53:08 06:58:26 73° 102° (ESE) 07:03:46 437.470
JAS-2 02 Mar 06:55:02 06:57:46 11° 281° (W) 06:59:39 435.910
PRISM 02 Mar 06:56:34 07:00:34 53° 79° (ENE) 07:04:35 437.425
STRAND 1 02 Mar 07:06:44 07:11:23 36° 78° (ENE) 07:16:05 437.568
PCSat 02 Mar 07:22:25 07:25:23 16° 68° (ENE) 07:28:42 145.827
CUBESAT XI-V 02 Mar 07:23:54 07:28:31 68° 259° (W) 07:33:09 437.345
JUGNU 02 Mar 07:26:35 07:30:11 16° 13° (NNE) 07:33:54 437.505
SRMSAT 02 Mar 07:27:33 07:28:30 10° 4° (N) 07:29:30 437.500
ISS 02 Mar 08:05:34 08:08:15 23° 306° (NW) 08:10:51 145.825
AIST 1 02 Mar 08:18:15 08:22:04 31° 275° (W) 08:25:51
CUTE 1.7 + AOD 2 02 Mar 08:41:16 08:43:44 16° 100° (E) 08:46:26 437.475
STRAND 1 02 Mar 08:47:58 08:50:30 13° 259° (W) 08:52:39 437.568
PCSat 02 Mar 09:03:52 09:08:44 34° 250° (WSW) 09:13:32 145.827
HO-68 02 Mar 09:04:47 09:11:40 51° 104° (ESE) 09:18:37 435.675
JUGNU 02 Mar 09:14:17 09:19:44 36° 19° (NNE) 09:25:13 437.505
SRMSAT 02 Mar 09:14:48 09:18:38 18° 13° (NNE) 09:22:33 437.500
BRITE-PL 02 Mar 09:21:53 09:26:02 67° 282° (WNW) 09:30:09 437.365/2234.400
RS-15 02 Mar 09:22:16 09:30:02 21° 65° (ENE) 09:38:56 29.354- 29.394
AAUSAT CUBESAT 2 02 Mar 09:26:59 09:30:51 38° 101° (E) 09:34:49 437.432
COMPASS 1 02 Mar 09:28:42 09:32:46 49° 101° (E) 09:36:54 437.405
GOMX 1 02 Mar 09:30:53 09:35:02 88° 278° (W) 09:39:12 467.674
O/OREOS (USA 219) 02 Mar 09:48:43 09:52:56 38° 285° (WNW) 09:57:06 437.305
SEEDS 02 Mar 09:54:46 09:58:53 50° 281° (W) 10:03:02 437.485
CANX-2 02 Mar 09:56:55 10:00:47 33° 281° (W) 10:04:39 2200.000
FUNcube-1 02 Mar 09:57:20 09:59:39 15° 101° (E) 10:02:14 145.935
ZACube-1 02 Mar 09:58:08 10:00:36 16° 101° (E) 10:03:20 437.345
UKube-1 02 Mar 10:07:20 10:10:24 20° 101° (E) 10:13:37 .
DOVE 4 02 Mar 10:09:54 10:13:44 37° 281° (W) 10:17:37 437.250
UWE-3 02 Mar 10:14:05 10:17:55 35° 101° (E) 10:21:53 435.000/436.395/437.385
CUTE 1.7 + AOD 2 02 Mar 10:16:18 10:19:33 21° 280° (W) 10:22:41 437.475
CINEMA 3 02 Mar 10:23:37 10:27:41 55° 281° (W) 10:31:52 145.822/145.860
UNISAT 6 02 Mar 10:33:09 10:36:24 20° 80° (E) 10:39:45 437.425
GONETS M04 02 Mar 10:34:23 10:43:11 85° 85° (E) 10:52:04
DELFI C3 02 Mar 10:39:23 10:43:25 61° 281° (W) 10:47:29 145.870
Oscar 11 02 Mar 10:49:01 10:52:58 34° 281° (W) 10:56:54 145.826/435.025
CUBEBUG 2 02 Mar 10:49:38 10:53:41 50° 281° (W) 10:57:52 437.445
HO-68 02 Mar 10:54:43 10:59:18 17° 283° (WNW) 11:03:25 435.675
TIGRISAT 02 Mar 10:57:36 11:01:56 42° 79° (E) 11:06:11 435.000
QB50P1 02 Mar 11:02:05 11:05:23 22° 80° (E) 11:08:48 145.935-145.965
SRMSAT 02 Mar 11:02:43 11:08:17 40° 20° (NNE) 11:13:50 437.500
JUGNU 02 Mar 11:02:52 11:08:53 83° 203° (SSW) 11:14:52 437.505
QB50P2 02 Mar 11:05:26 11:08:58 26° 79° (E) 11:12:35 145.880/145.840
ANTELSAT 02 Mar 11:10:32 11:15:07 69° 78° (ENE) 11:19:34 437.575/2403.000
AISAT 02 Mar 11:11:19 11:15:37 54° 101° (ESE) 11:19:57 437.250
DX 1 02 Mar 11:11:45 11:15:52 42° 282° (WNW) 11:19:58 434.975-435.025
BUGSAT 1 02 Mar 11:16:21 11:19:44 24° 79° (E) 11:23:13 437.445
CUBEBUG 1 02 Mar 11:18:34 11:21:48 21° 101° (E) 11:25:11 437.445
DUCHIFAT 1 02 Mar 11:20:43 11:24:45 41° 79° (E) 11:28:48 145.980
VELOX 1 02 Mar 11:21:08 11:25:31 74° 101° (ESE) 11:29:56 145.980
RS-15 02 Mar 11:30:47 11:42:40 67° 248° (WSW) 11:54:48 29.354- 29.394
FUNcube-1 02 Mar 11:32:42 11:35:54 21° 280° (W) 11:39:01 145.935
ZACube-1 02 Mar 11:33:45 11:36:52 20° 280° (W) 11:39:54 437.345
ESTCUBE 1 02 Mar 11:34:00 11:38:16 42° 101° (ESE) 11:42:33 437.505/2401.250
POLYITAN 1 02 Mar 11:39:45 11:44:06 85° 79° (ENE) 11:48:24 437.675
POPSAT HIP 1 02 Mar 11:40:39 11:45:00 85° 76° (ENE) 11:49:17 437.405
HUMSAT D 02 Mar 11:42:19 11:46:01 32° 281° (W) 11:49:45 437.325/437.525
UKube-1 02 Mar 11:43:33 11:46:27 17° 281° (W) 11:49:08 .
50 SAT 02 Mar 11:47:01 11:50:46 40° 281° (W) 11:54:33 437.505
SPROUT 02 Mar 11:55:49 11:56:47 11° 100° (E) 11:58:05 437.525
DANDE 02 Mar 11:58:03 11:58:50 11° 88° (E) 11:59:55 436.750
TISAT 1 02 Mar 12:01:59 12:03:21 12° 100° (E) 12:05:01 437.305
SO-50 02 Mar 12:03:36 12:04:40 11° 64° (ENE) 12:06:07 436.795
NANOSAT C BR1 02 Mar 12:04:22 12:08:28 42° 259° (W) 12:12:30 145.865
UNISAT 6 02 Mar 12:09:47 12:13:04 19° 259° (W) 12:16:07 437.425
CUSAT 1 02 Mar 12:29:33 12:32:33 79° 84° (E) 12:36:26 437.405
QB50P1 02 Mar 12:38:39 12:41:10 15° 260° (W) 12:43:25 145.935-145.965
QB50P2 02 Mar 12:42:44 12:44:46 13° 260° (W) 12:46:31 145.880/145.840
BUGSAT 1 02 Mar 12:52:59 12:55:07 13° 260° (W) 12:57:00 437.445
